User: anonymous   Login
Location: Bayshore Village Mobile Home Park
(26.6945°N, 81.8642°W)
Time: 02:25:50
(UTC+00:00)
Language:

Cosmos 836 Rocket - Orbit

View from above orbital plane
View from above orbital plane
View from above satellite
View from above satellite

Ground track
Ground track

The orbit data is extracted from the following two-line orbital elements,

1 08924U 76061B   21269.30152179  .00000120  00000-0  48948-4 0  9991
2 08924  74.0564 114.7216 0014371 344.5268 188.7181 14.37208054367915
Epoch (UTC): 26 September 2021 07:14:11
Eccentricity: 0.0014371
inclination: 74.0564°
perigee height: 757 km
apogee height: 778 km
right ascension of ascending node: 114.7216°
argument of perigee: 344.5268°
revolutions per day: 14.37208054
mean anomaly at epoch: 188.7181°
orbit number at epoch: 36791

The dashed part of the orbit path shows where the satellite is in the earth's shadow,  

DLR